Location: Boussac
(44.2782°N, 2.3665°E)
Time: 21:04:12
(UTC+00:00)

Cosmos 2369 - Pass Details

Date: 15 May 2026
Orbit: 836 x 856 km, 71.0° (Epoch: 8 June)

Event Time Altitude Azimuth Distance (km) Brightness Sun altitude
Rises 20:43:17 0° 329° (NNW) 3,430 8.5 -14.1°
Reaches altitude 10° 20:45:48 10° 324° (NW) 2,492 7.5 -14.4°
Maximum altitude 20:51:16 47° 252° (WSW) 1,117 4.5 -15.1°
Enters shadow 20:56:06 13° 182° (S) 2,268 5.5 -15.6°
